#timestamp,LO_Frequency,Hit,StdDev 
1599685215.9,286047001.6,N
1599685235.7,286047001.8,N
1599685255.5,286047002.3,N
1599685275.4,286047002.3,N
1599685295.2,286047004.3,N
1599685315.0,286047007.2,Y
1599685316.0,286047007.2,P
1599685335.8,286047005.3,N
1599685355.6,286047004.7,N
1599685375.5,286047010.1,Y
1599685395.3,286047005.0,P
1599685415.1,286047003.2,P
1599685435.9,286047004.7,P
1599685455.7,286047007.4,Y
1599685475.6,286047001.3,P
1599685495.4,286047008.8,P
1599685515.2,286047010.6,P
1599685535.1,286047006.2,N
1599685536.0,286047006.2,N
1599685555.8,286047005.3,N
1599685575.7,286047002.1,N
1599685595.5,286047000.8,N
1599685615.3,286046999.5,N
1599685635.2,286046994.9,N
1599685655.9,286046995.2,N
1599685675.7,286046995.2,N
1599685695.6,286046995.5,N
1599685715.4,286046993.4,N
1599685735.2,286046994.2,N
1599685755.1,286046991.7,N
1599685756.0,286046991.7,N
1599685775.8,286046994.1,N
1599685795.7,286046992.1,N
1599685815.5,286046994.5,N
1599685835.4,286046992.2,N
1599685855.2,286046992.3,N
1599685875.0,286046994.4,N
1599685875.9,286046994.4,N
1599685895.8,286046992.7,N
1599685915.6,286046994.8,N
1599685935.4,286046994.3,N
1599685955.3,286046991.7,N
1599685975.1,286046991.8,N
1599685995.9,286046992.6,N
1599686015.7,286046992.9,N
1599686035.5,286046992.9,N
1599686055.4,286046993.1,N
1599686075.2,286046992.5,N
1599686095.0,286046993.0,N
1599686095.9,286046993.0,N
1599686115.8,286046991.9,Y
1599686135.6,286046998.9,P
1599686155.5,286046997.0,N
1599686175.3,286046997.9,N
1599686195.1,286046997.4,N
1599686215.9,286046997.0,N
1599686235.7,286046999.6,N
1599686255.5,286046996.7,N
1599686275.4,286046997.2,N
1599686295.2,286046995.3,Y
1599686315.1,286047000.5,P
1599686316.0,286047000.5,N
1599686335.8,286047000.4,N
1599686355.6,286047000.4,N
1599686375.5,286047000.7,N
1599686395.3,286046999.9,N
1599686415.2,286046999.8,N
1599686435.9,286047000.0,N
1599686455.7,286047000.1,N
1599686475.6,286047002.4,N
1599686495.4,286047000.0,N
1599686515.2,286047000.0,N
1599686535.1,286046998.5,N
1599686536.0,286046998.5,N
1599686555.8,286046999.7,N
1599686575.7,286047002.2,N
1599686595.5,286047002.1,N
1599686615.3,286047001.8,N
1599686635.2,286047004.4,Y
1599686655.0,286047001.6,P
1599686655.9,286047001.6,N
1599686675.8,286047001.6,N
1599686695.6,286047004.4,Y
1599686715.4,286046999.7,P
1599686735.3,286047002.1,N
1599686755.1,286047000.4,N
1599686775.8,286047000.6,N
1599686795.7,286047001.1,N
1599686815.5,286047000.5,N
1599686835.4,286047001.0,N
1599686855.2,286047000.5,N
1599686875.0,286047000.4,N
1599686875.9,286047000.4,N
1599686895.8,286047000.8,N
1599686915.6,286046999.8,N
1599686935.5,286047000.4,N
1599686955.3,286047000.8,N
1599686975.1,286046999.9,N
1599686995.9,286047002.7,Y
1599687015.7,286047000.6,P
1599687035.5,286046998.1,P
1599687055.4,286047000.8,N
1599687075.2,286046998.7,N
1599687095.1,286046998.8,N
1599687096.0,286046998.8,N
1599687115.8,286046999.4,N
1599687135.6,286046998.5,N
1599687155.5,286046999.1,N
1599687175.3,286046999.4,N
1599687195.1,286046998.8,N
1599687215.9,286047001.0,N
1599687235.7,286046999.8,N
1599687255.6,286047002.4,N
1599687275.4,286047002.7,N
1599687295.2,286047000.1,N
1599687315.1,286047001.1,N
1599687316.0,286047001.1,N
1599687335.8,286047001.2,N
1599687355.7,286046998.4,N
1599687375.5,286046998.7,N
1599687395.3,286046998.5,N
1599687415.2,286046998.9,N
1599687435.9,286046999.2,N
1599687455.7,286046999.6,N
1599687475.6,286046998.6,N
1599687495.4,286046999.2,N
1599687515.2,286046998.6,N
1599687535.1,286046999.1,N
1599687536.0,286046999.1,N
1599687555.8,286046999.4,N
1599687575.7,286046999.6,N
1599687595.5,286046999.3,N
1599687615.3,286046996.6,Y
1599687635.2,286046999.0,P
1599687655.0,286046999.5,N
1599687655.9,286046999.5,N
1599687675.8,286046998.4,Y
1599687695.6,286046999.6,P
1599687715.4,286046999.1,P
1599687735.3,286046999.6,N
1599687755.1,286046997.1,Y
1599687775.8,286046999.2,P
1599687795.7,286046998.7,P
1599687815.5,286046999.2,N
1599687835.4,286046996.7,Y
1599687855.2,286046998.8,P
1599687875.0,286047001.0,P
1599687875.9,286047001.0,N
1599687895.8,286047000.8,N
1599687915.6,286046998.5,N
1599687935.4,286046998.7,N
1599687955.3,286047000.9,N
1599687975.1,286046999.3,N
1599687995.9,286046997.0,N
1599688015.7,286046998.6,N
1599688035.5,286046998.1,N
1599688055.4,286046998.3,N
1599688075.2,286046998.2,N
1599688095.0,286046998.1,N
1599688095.9,286046998.1,N
1599688115.8,286047000.8,N
1599688135.6,286046998.6,N
1599688155.5,286046999.9,N
1599688175.3,286047000.5,N
1599688195.1,286047000.2,N
1599688215.9,286047001.0,N
1599688235.7,286047000.6,N
1599688255.5,286046999.8,N
1599688275.4,286047000.5,N
1599688295.2,286046998.6,N
1599688315.1,286046998.6,N
1599688316.0,286046998.6,N
1599688335.8,286046998.2,N
1599688355.6,286046998.8,N
1599688375.5,286047001.1,N
1599688395.3,286047001.2,N
1599688415.1,286046998.8,N
1599688435.9,286047001.1,N
1599688455.7,286046998.3,N
1599688475.6,286046998.4,N
1599688495.4,286046999.1,N
1599688515.2,286047000.4,N
1599688535.1,286047001.2,N
1599688536.0,286047001.2,N
1599688555.8,286046998.3,N
1599688575.6,286046999.0,N
1599688595.5,286046999.2,N
1599688615.3,286046999.6,N
1599688635.2,286046999.3,N
1599688655.9,286046999.2,N
1599688675.7,286046999.1,N
1599688695.6,286046999.6,N
1599688715.4,286046998.7,N
1599688735.2,286047001.1,N
1599688755.1,286047001.0,N
1599688756.0,286047001.0,N
1599688775.8,286046998.1,N
1599688795.7,286047000.8,N
